Location: Newark
(52.1031°N, 9.3600°E)
Time: 11:43:43
(UTC+00:00)

nSIGHT-1 - Pass Details

Date: 15 December 2019
Orbit: 316 x 318 km, 51.6° (Epoch: 17 January)

Event Time Altitude Azimuth Distance (km) Brightness Sun altitude
Exits shadow 04:34:58 18° 108° (ESE) 874 ? -24.5°
Drops below altitude 10° 04:36:01 10° 92° (E) 1,223 ? -24.4°
Sets 04:38:08 0° 80° (E) 2,055 ? -24.1°
